Weather in Ishimbay

Russia / Republic of Bashkortostan     53°27′16″N   56°02′38″E
temp.,
°C
wind,
m/s
gust,
m/s
humid.,
%
clouds,
%
prec.,
mm/h
press.,
hPa
HPBL,
m
23 may, mon
mon2323:00+6s368885 1.2 1002110
02:00+4sse3594100 0.0 100196
05:00+5ese2491100 0.1 999121
08:00+6ene3793100 1.1 997307
11:00+6nne3595100 2.0 996247
14:00+6wnw2293100 0.3 998267
17:00+9sw358496 0.3 1002748
20:00+9ssw2385100 0.1 1003129
24 may, tue
tue2423:00+7s228987 0.1 100414
02:00+7e1195100 0.3 100310
05:00+7e1196100 1.2 100415
08:00+9nne119198 0.1 1005174
11:00+13wnw117398 0.1 1005917
14:00+14nnw1166100 0.1 1006823
17:00+14ne2275100 0.1 1006516
20:00+11nne2595100 0.7 1006195
25 may, wed
wed2523:00+10nne3799100 7.6 1007293
02:00+9nne4898100 3.6 1007319
05:00+9n3697100 3.7 1007240
08:00+8nw2496100 1.3 1007169
11:00+9nnw3697100 5.4 1008330
14:00+9ene2295100 3.6 1009201
17:00+11ese2282100 3.6 1009418
20:00+11nw0085100 0.0 100918
26 may, thu
thu2623:00+8nnw359392 0.2 1009134
02:00+6nw389276 0.0 1010269
05:00+4nw25929 0.0 1011136
08:00+7nw47764 0.0 1012488
11:00+11wnw576037 0.0 10121658
14:00+13w6753100 0.1 10122213
17:00+13w575776 0.2 10131748
20:00+10wsw477365 0.4 1013212
27 may, fri
fri2723:00+6ssw4108389 0.4 1014183
02:00+5s4108952 0.0 1013188
05:00+6s61581100 0.0 1011407
08:00+8s81882100 0.4 1010704
11:00+10s91677100 0.5 1010777
14:00+13s91676100 0.1 10091217
17:00+14ssw91482100 1.3 10071122
20:00+12s61292100 0.9 1007720